Overview Statistics Trail Chart Weather Telemetry Raw packets
 

This is the latest recevied weather packets stored in our database for station/object IU8UOQ-5. If no packets are shown the sender has not sent any weather packets the latest 10 day(s).

<< 1 2 3 4 5 >>
Time Temp. Humidity Pressure Rain* Wind** Luminosity Snow
1788583171 26.11° C 44% 1010.3 hPa - - - -
1788581970 26.67° C 43% 1010.1 hPa - - - -
1788580769 27.78° C 44% 1010.2 hPa - - - -
1788579567 27.78° C 44% 1010 hPa - - - -
1788578366 27.78° C 42% 1009.8 hPa - - - -
1788577165 27.78° C 41% 1009.8 hPa - - - -
1788575963 27.78° C 41% 1009.7 hPa - - - -
1788574762 27.78° C 42% 1009.8 hPa - - - -
1788573561 27.78° C 45% 1009.8 hPa - - - -
1788572360 27.22° C 45% 1009.9 hPa - - - -
1788571159 26.67° C 39% 1009.9 hPa - - - -
1788569957 27.22° C 50% 1009.9 hPa - - - -
1788568756 26.67° C 42% 1009.9 hPa - - - -
1788567555 26.11° C 41% 1009.9 hPa - - - -
1788566354 26.11° C 40% 1010 hPa - - - -
1788565152 26.11° C 40% 1010.1 hPa - - - -
1788563951 25.56° C 42% 1010.3 hPa - - - -
1788562750 26.11° C 41% 1010.5 hPa - - - -
1788561549 26.11° C 42% 1010.6 hPa - - - -
1788560347 26.11° C 43% 1010.6 hPa - - - -
1788559146 26.67° C 42% 1010.5 hPa - - - -
1788557945 26.67° C 42% 1010.4 hPa - - - -
1788556744 27.22° C 44% 1010.4 hPa - - - -
1788555542 27.78° C 43% 1010.4 hPa - - - -
1788554341 27.78° C 44% 1010.5 hPa - - - -

* Rain since midnight (hover to see other rain measurements)
** Current wind speed in m/s (hover to see current wind gust speed)